DW3478 Weather Reports


Display with metric or nautical units.
time (UTC)temp
F
wind
direction
speed
MPH
gust
MPH
rain 1hr
in
rain 24hr
in
rain mn
in
humidity
%
barometer
mb
20260510102806 58 257 1.0 3.0 0.03 0.03 0.03 85 1012.8
20260510102306 58 5 0.0 2.0 0.03 0.03 0.03 86 1012.8
20260510100805 56 26 2.0 3.0 0.03 0.03 0.03 89 1012.8
20260510095805 57 338 1.0 3.0 0.03 0.03 0.03 84 1012.8
20260510094305 58 297 3.0 7.0 0.02 0.02 0.02 80 1012.7
20260510093805 58 327 3.0 13.0 0.01 0.01 0.01 78 1012.7
20260510092805 59 291 2.0 6.0 0.00 0.00 0.00 73 1012.5
20260510091305 60 312 2.0 3.0 0.00 0.00 0.00 74 1012.5
20260510090805 59 294 2.0 5.0 0.00 0.00 0.00 75 1012.5
20260510082805 58 328 2.0 3.0 0.00 0.00 0.00 74 1012.3
20260510081305 57 304 2.0 6.0 0.00 0.00 0.00 75 1012.2
20260510080806 57 317 2.0 6.0 0.00 0.00 0.00 76 1012.2
20260510080305 56 275 1.0 6.0 0.00 0.00 0.00 77 1012.1
20260510075805 56 311 2.0 6.0 0.00 0.00 0.00 77 1012.1
20260510075306 56 293 1.0 3.0 0.00 0.00 0.00 77 1012.1
20260510074805 56 294 1.0 5.0 0.00 0.00 0.00 78 1012.0
20260510074305 56 316 1.0 3.0 0.00 0.00 0.00 77 1011.8
20260510073805 57 290 2.0 5.0 0.00 0.00 0.00 76 1012.1
20260510073306 57 312 1.0 5.0 0.00 0.00 0.00 76 1012.0
20260510072805 56 331 1.0 3.0 0.00 0.00 0.00 77 1012.0
20260510072306 56 283 1.0 3.0 0.00 0.00 0.00 79 1011.9
20260510070805 55 294 1.0 3.0 0.00 0.00 0.00 80 1011.7
20260510070305 55 324 1.0 5.0 0.00 0.00 0.00 80 1011.8
20260510065805 55 333 0.0 3.0 0.00 0.00 0.00 80 1011.7
20260510063806 54 298 1.0 2.0 0.00 0.00 0.00 79 1011.7
20260510061805 54 357 1.0 3.0 0.00 0.00 0.00 79 1011.5
20260510061305 54 312 1.0 3.0 0.00 0.00 0.00 80 1011.3
20260510054304 54 306 3.0 5.0 0.00 0.00 0.00 83 1010.9
20260510051805 54 302 1.0 5.0 0.00 0.00 0.00 84 1011.0
20260510051305 54 338 2.0 5.0 0.00 0.00 0.00 83 1011.0
20260510050804 54 295 1.0 6.0 0.00 0.00 0.00 83 1010.9
20260510050305 54 277 1.0 5.0 0.00 0.00 0.00 83 1010.8
20260510045804 54 333 1.0 6.0 0.00 0.00 0.00 83 1010.9
20260510045306 54 313 1.0 3.0 0.00 0.00 0.00 83 1010.9
20260510044304 54 214 1.0 6.0 0.00 0.00 0.00 82 1010.9
20260510043805 54 327 1.0 3.0 0.00 0.00 0.00 82 1011.0
20260510042805 54 356 2.0 6.0 0.00 0.00 0.00 82 1010.9
20260510042307 54 310 2.0 5.0 0.00 0.00 0.00 82 1010.8
20260510041805 55 339 1.0 5.0 0.00 0.00 0.00 81 1010.9
20260510034805 54 286 2.0 5.0 0.00 0.00 0.00 80 1010.9
20260510034305 54 335 2.0 6.0 0.00 0.00 0.00 80 1010.7
20260510033305 54 328 1.0 3.0 0.00 0.00 0.00 79 1010.8
20260510032805 54 322 2.0 6.0 0.00 0.00 0.00 79 1010.7
20260510032306 54 324 2.0 10.0 0.00 0.00 0.00 79 1010.7
20260510031805 54 317 2.0 6.0 0.00 0.00 0.00 79 1010.8
20260510031305 54 324 2.0 7.0 0.00 0.00 0.00 79 1010.8
20260510023305 54 293 2.0 10.0 0.00 0.01 0.00 79 1011.0
20260510021805 54 324 1.0 9.0 0.00 0.01 0.00 80 1011.0
20260510020805 54 298 2.0 6.0 0.00 0.02 0.00 81 1011.1
20260510015805 54 23 1.0 3.0 0.00 0.02 0.00 82 1011.1
20260510015306 54 319 3.0 9.0 0.00 0.02 0.00 82 1011.1
20260510014305 54 337 2.0 5.0 0.00 0.02 0.00 82 1011.2
20260510011805 54 340 1.0 5.0 0.00 0.02 0.00 82 1011.1
20260510010804 54 315 1.0 5.0 0.00 0.02 0.00 82 1011.3
20260510010305 54 0 2.0 5.0 0.00 0.02 0.00 82 1011.3
20260510005306 55 289 1.0 5.0 0.00 0.02 0.00 82 1011.2
20260510004804 55 303 2.0 5.0 0.00 0.02 0.00 82 1011.3
20260510003805 55 348 2.0 7.0 0.00 0.02 0.00 82 1011.2
20260510002804 56 350 2.0 7.0 0.00 0.02 0.00 82 1011.3
20260510002306 56 344 2.0 6.0 0.00 0.02 0.00 82 1011.4
20260510001805 56 308 2.0 6.0 0.00 0.02 0.00 82 1011.5
20260509235805 56 325 2.0 9.0 0.00 0.02 0.00 80 1011.4
20260509231805 56 287 1.0 3.0 0.00 0.05 0.00 81 1011.3
20260509225805 56 332 2.0 6.0 0.00 0.05 0.05 81 1011.3
20260509225306 57 322 2.0 6.0 0.00 0.05 0.05 81 1011.2
20260509222804 57 309 3.0 7.0 0.00 0.05 0.05 79 1011.4
20260509222307 57 339 2.0 6.0 0.00 0.05 0.05 80 1011.4
20260509220804 57 319 2.0 5.0 0.00 0.05 0.05 78 1011.5
20260509220304 57 319 2.0 5.0 0.00 0.05 0.05 79 1011.4
20260509215804 57 324 2.0 5.0 0.00 0.05 0.05 79 1011.4
20260509205805 57 321 1.0 6.0 0.00 0.05 0.05 80 1010.9
20260509205307 57 330 2.0 6.0 0.00 0.05 0.05 81 1010.9
20260509204804 57 316 2.0 3.0 0.00 0.05 0.05 81 1010.6
20260509204304 57 310 1.0 6.0 0.00 0.05 0.05 81 1010.7
20260509203805 57 333 2.0 7.0 0.00 0.05 0.05 81 1010.3
20260509203304 57 326 2.0 6.0 0.00 0.05 0.05 82 1010.6
20260509202306 58 311 3.0 10.0 0.00 0.05 0.05 82 1010.5
20260509201805 58 305 3.0 9.0 0.00 0.05 0.05 82 1010.6
20260509201305 58 302 2.0 10.0 0.00 0.05 0.05 82 1010.5
20260509200304 58 301 2.0 5.0 0.00 0.05 0.05 81 1010.6
20260509195805 58 320 2.0 7.0 0.00 0.05 0.05 81 1010.6
20260509195306 58 323 2.0 6.0 0.00 0.05 0.05 80 1010.6
20260509194805 58 297 3.0 9.0 0.00 0.05 0.05 80 1010.6
20260509185306 60 297 2.0 7.0 0.00 0.05 0.05 78 1010.2
20260509184804 60 283 3.0 7.0 0.00 0.05 0.05 78 1009.9
20260509184304 60 317 3.0 7.0 0.00 0.05 0.05 79 1009.8
20260509182805 60 318 3.0 5.0 0.00 0.05 0.05 80 1009.9
20260509182306 60 299 2.0 6.0 0.00 0.05 0.05 81 1009.9
20260509181805 60 307 3.0 12.0 0.00 0.05 0.05 82 1010.0
20260509180805 60 310 3.0 10.0 0.00 0.09 0.05 87 1010.0
20260509172804 61 301 3.0 7.0 0.00 0.14 0.05 79 1009.3
20260509163804 62 297 3.0 8.0 0.00 0.14 0.05 78 1009.6
20260509162804 63 305 3.0 10.0 0.00 0.14 0.05 77 1009.5
20260509161305 62 312 2.0 5.0 0.00 0.14 0.05 79 1009.7
20260509160304 62 313 4.0 13.0 0.00 0.14 0.05 81 1009.7
20260509155804 62 304 3.0 12.0 0.00 0.14 0.05 79 1009.5
20260509151304 63 310 4.0 9.0 0.00 0.14 0.05 76 1009.5
20260509150304 64 291 5.0 12.0 0.00 0.14 0.05 74 1009.4
20260509144805 65 316 3.0 12.0 0.00 0.14 0.05 73 1009.5
20260509144305 66 310 5.0 10.0 0.00 0.14 0.05 72 1009.4
20260509143806 65 292 3.0 10.0 0.00 0.14 0.05 73 1009.6
20260509143306 64 313 3.0 9.0 0.00 0.14 0.05 73 1009.6
20260509140305 63 313 2.0 6.0 0.00 0.14 0.05 76 1009.6
20260509135806 62 296 3.0 9.0 0.00 0.14 0.05 76 1009.6
20260509135306 63 328 3.0 9.0 0.00 0.14 0.05 73 1009.5
20260509134805 63 318 3.0 12.0 0.00 0.14 0.05 75 1009.2
20260509134305 62 304 5.0 12.0 0.00 0.14 0.05 79 1009.3
20260509133806 63 327 5.0 17.0 0.00 0.14 0.05 75 1009.3
20260509133305 64 332 3.0 10.0 0.00 0.14 0.05 73 1009.3
20260509132806 65 303 3.0 10.0 0.00 0.14 0.05 73 1009.2
20260509131805 66 314 4.0 18.0 0.00 0.14 0.05 71 1009.4
20260509131305 66 304 3.0 10.0 0.00 0.14 0.05 71 1009.4
20260509130806 66 319 3.0 6.0 0.00 0.14 0.05 69 1009.5
20260509130305 66 289 3.0 10.0 0.00 0.14 0.05 71 1009.5
20260509124305 65 309 5.0 17.0 0.00 0.14 0.05 71 1009.4
20260509123805 64 323 5.0 14.0 0.00 0.14 0.05 76 1009.4
20260509114805 64 308 4.0 13.0 0.00 0.14 0.05 79 1009.1
20260509114305 61 306 3.0 9.0 0.00 0.14 0.05 83 1009.1
20260509112307 63 303 3.0 12.0 0.00 0.14 0.05 74 1009.2
20260509111305 62 315 3.0 7.0 0.00 0.14 0.05 78 1009.2
20260509110805 64 321 3.0 10.0 0.00 0.14 0.05 76 1009.2
20260509110305 63 308 3.0 6.0 0.00 0.14 0.05 78 1009.2
20260509105806 64 322 4.0 12.0 0.00 0.14 0.05 79 1009.1
20260509105306 62 315 4.0 9.0 0.00 0.14 0.05 81 1009.2